Change the Weather History Date:

Saturday, June 9, 2012

  Actual Average Record
Temperature  
Mean Temperature 69 °F 70 °F  
Max Temperature 85 °F 81 °F 96 °F (1874)
Min Temperature 53 °F 60 °F 43 °F (1913)
Degree Days  
Heating Degree Days 0 1  
Month to date heating degree days 12 10  
Since 1 June heating degree days 12 10  
Since 1 July heating degree days 4015 4970  
Cooling Degree Days 4 6  
Month to date cooling degree days 16 49  
Year to date cooling degree days 219 143  
Since 1 June cooling degree days 16 49  
Growing Degree Days 18 (Base 50)    
Moisture  
Dew Point 54 °F    
Average Humidity 64    
Maximum Humidity 93    
Minimum Humidity 34    
Precipitation  
Precipitation 0.00 in 0.15 in 2.34 in (2010)
Month to date precipitation 0.85 1.36  
Year to date precipitation 17.74 19.95  
Snow  
Snow 0.00 in 0.00 in 0.00 in ()
Month to date snowfall 0.0 0.0  
Since 1 June snowfall 0.0 0.0  
Since 1 July snowfall 5.6 22.1  
Snow Depth 0.00 in    
Sea Level Pressure  
Sea Level Pressure 30.00 in    
Wind  
Wind Speed 4 mph (SSW)    
Max Wind Speed 13 mph    
Max Gust Speed 17 mph    
Visibility 10 miles    
Events      
T = Trace of Precipitation, MM = Missing Value Source: NWS Daily Summary

Daily Weather History Graph

Daily Weather History Graph

Search for Another Location

Airport or City:

Trip Planner

Search our weather history database for the weather conditions in past years. The results will help you decide how hot, cold, wet, or windy it might be!

Date:

Astronomy

Jun. 09, 2012 Rise Set
Actual Time 6:12 AM EDT 9:03 PM EDT
Civil Twilight 5:40 AM EDT 9:35 PM EDT
Nautical Twilight 5:00 AM EDT 10:16 PM EDT
Astronomical Twilight 4:14 AM EDT 11:02 PM EDT
Moon 12:28 AM EDT (6/9) 11:55 AM EDT (6/9)
Length of Visible Light 15h 55m
Length of Day
14h 51m
Waning Gibbous, 68% of the Moon is Illuminated
Jun 9
Waning Gibbous
Jun 11
Last Quarter
Jun 19
New
Jun 26
First Quarter
Jul 3
Full

Hourly Weather History & Observations

Time (EDT) Temp. Heat Index Dew Point Humidity Pressure Visibility Wind Dir Wind Speed Gust Speed Precip Events Conditions
12:52 AM 62.1 °F - 52.0 °F 70% 30.01 in 10.0 mi South 4.6 mph - N/A   Clear
1:52 AM 66.0 °F - 51.1 °F 59% 30.00 in 10.0 mi Calm Calm - N/A   Clear
2:52 AM 60.8 °F - 51.8 °F 72% 30.02 in 10.0 mi Calm Calm - N/A   Clear
3:52 AM 57.0 °F - 53.1 °F 87% 29.99 in 10.0 mi Calm Calm - N/A   Clear
4:52 AM 55.0 °F - 52.0 °F 89% 30.00 in 9.0 mi South 3.5 mph - N/A   Clear
5:52 AM 59.0 °F - 52.0 °F 78% 30.01 in 10.0 mi Calm Calm - N/A   Scattered Clouds
6:52 AM 54.0 °F - 52.0 °F 93% 30.02 in 10.0 mi South 4.6 mph - N/A   Mostly Cloudy
7:52 AM 62.1 °F - 55.9 °F 80% 30.03 in 10.0 mi Calm Calm - N/A   Mostly Cloudy
8:52 AM 70.0 °F - 55.9 °F 61% 30.04 in 10.0 mi Calm Calm - N/A   Mostly Cloudy
9:52 AM 73.9 °F - 57.0 °F 55% 30.04 in 10.0 mi SSW 3.5 mph - N/A   Mostly Cloudy
10:52 AM 78.1 °F - 55.0 °F 45% 30.04 in 10.0 mi SSW 5.8 mph - N/A   Scattered Clouds
11:52 AM 80.1 °F - 52.0 °F 38% 30.04 in 10.0 mi SSW 6.9 mph - N/A   Scattered Clouds
12:52 PM 82.0 °F - 52.0 °F 35% 30.02 in 10.0 mi SW 6.9 mph - N/A   Scattered Clouds
1:52 PM 82.9 °F 81.8 °F 53.1 °F 36% 30.01 in 10.0 mi South 6.9 mph - N/A   Scattered Clouds
2:52 PM 84.0 °F 82.6 °F 54.0 °F 35% 29.99 in 10.0 mi SW 10.4 mph 16.1 mph N/A   Scattered Clouds
3:52 PM 84.9 °F 83.6 °F 55.0 °F 36% 29.97 in 10.0 mi SSW 8.1 mph - N/A   Scattered Clouds
4:52 PM 84.0 °F 82.6 °F 54.0 °F 35% 29.96 in 10.0 mi SW 8.1 mph - N/A   Scattered Clouds
5:52 PM 84.0 °F 82.5 °F 53.1 °F 34% 29.96 in 10.0 mi SW 8.1 mph - N/A   Scattered Clouds
6:52 PM 82.9 °F 81.9 °F 54.0 °F 37% 29.96 in 10.0 mi WSW 5.8 mph - N/A   Partly Cloudy
7:52 PM 82.0 °F 81.6 °F 55.9 °F 41% 29.95 in 10.0 mi Calm Calm - N/A   Partly Cloudy
8:52 PM 75.9 °F - 57.0 °F 52% 29.95 in 10.0 mi South 3.5 mph - N/A   Partly Cloudy
9:52 PM 71.1 °F - 54.0 °F 55% 29.96 in 10.0 mi South 3.5 mph - N/A   Partly Cloudy
10:52 PM 71.1 °F - 53.1 °F 53% 29.97 in 10.0 mi South 5.8 mph - N/A   Partly Cloudy